Time,TemperatureF,DewpointF,PressureIn,WindDirection,WindDirectionDegrees,WindSpeedMPH,WindSpeedGustMPH,Humidity,HourlyPrecipIn,Conditions,Clouds,dailyrainin,SoftwareType,DateUTC
2013-04-09 00:03:00,62.0,61.0,29.95,SSW,192,0.0,0.0,96,0.00,,,0.09,,2013-04-09 04:03:00,
2013-04-09 00:13:00,62.0,61.0,29.95,SSW,192,0.0,0.0,96,0.00,,,0.09,,2013-04-09 04:13:00,
2013-04-09 00:23:00,62.0,61.0,29.94,SSW,192,0.0,0.0,97,0.00,,,0.09,,2013-04-09 04:23:00,
2013-04-09 00:32:00,62.0,61.0,29.94,SSE,168,5.0,6.0,97,0.00,,,0.09,,2013-04-09 04:32:00,
2013-04-09 00:42:00,62.0,61.0,29.94,SSE,168,5.0,6.0,97,0.00,,,0.09,,2013-04-09 04:42:00,
2013-04-09 00:53:00,62.0,61.0,29.94,SSE,168,5.0,6.0,97,0.00,,,0.09,,2013-04-09 04:53:00,
2013-04-09 01:02:00,61.0,60.0,29.96,SSE,147,0.0,0.0,98,0.00,,,0.09,,2013-04-09 05:02:00,
2013-04-09 01:12:00,61.0,60.0,29.96,SE,144,0.0,0.0,98,0.00,,,0.09,,2013-04-09 05:12:00,
2013-04-09 01:22:00,61.0,60.0,29.96,SE,144,0.0,0.0,98,0.00,,,0.09,,2013-04-09 05:22:00,
2013-04-09 01:32:00,61.0,60.0,29.96,SE,144,0.0,0.0,98,0.00,,,0.09,,2013-04-09 05:32:00,
2013-04-09 01:42:00,61.0,61.0,29.98,SE,143,1.0,6.0,99,0.00,,,0.09,,2013-04-09 05:42:00,
2013-04-09 01:52:00,61.0,61.0,29.98,SE,143,1.0,6.0,99,0.00,,,0.09,,2013-04-09 05:52:00,
2013-04-09 02:02:00,61.0,61.0,29.98,NE,51,0.0,0.0,99,0.00,,,0.09,,2013-04-09 06:02:00,
2013-04-09 02:12:00,61.0,61.0,29.97,NE,48,0.0,0.0,99,0.00,,,0.09,,2013-04-09 06:12:00,
2013-04-09 02:22:00,61.0,61.0,29.97,NE,48,0.0,0.0,99,0.00,,,0.09,,2013-04-09 06:22:00,
2013-04-09 02:32:00,60.0,60.0,29.97,NE,48,0.0,0.0,99,0.00,,,0.09,,2013-04-09 06:32:00,
2013-04-09 02:42:00,60.0,60.0,29.97,NE,48,0.0,0.0,99,0.00,,,0.09,,2013-04-09 06:42:00,
2013-04-09 02:52:00,59.0,59.0,29.96,ENE,58,0.0,0.0,99,0.00,,,0.09,,2013-04-09 06:52:00,
2013-04-09 03:02:00,59.0,59.0,29.96,East,97,0.0,0.0,99,0.00,,,0.09,,2013-04-09 07:02:00,
2013-04-09 03:12:00,59.0,59.0,29.96,East,97,0.0,0.0,99,0.00,,,0.09,,2013-04-09 07:12:00,
2013-04-09 03:22:00,58.0,58.0,29.95,East,97,0.0,0.0,99,0.00,,,0.09,,2013-04-09 07:22:00,
2013-04-09 03:32:00,58.0,58.0,29.95,East,97,0.0,0.0,99,0.00,,,0.09,,2013-04-09 07:32:00,
2013-04-09 03:42:00,58.0,58.0,29.95,East,97,0.0,0.0,99,0.00,,,0.09,,2013-04-09 07:42:00,
2013-04-09 03:52:00,57.0,57.0,29.95,East,97,0.0,0.0,99,0.00,,,0.09,,2013-04-09 07:52:00,
2013-04-09 04:02:00,56.0,56.0,29.95,East,97,0.0,0.0,99,0.00,,,0.09,,2013-04-09 08:02:00,
2013-04-09 04:12:00,56.0,56.0,29.95,East,97,0.0,0.0,99,0.00,,,0.09,,2013-04-09 08:12:00,
2013-04-09 04:22:00,56.0,56.0,29.95,East,97,0.0,0.0,99,0.00,,,0.09,,2013-04-09 08:22:00,
2013-04-09 04:32:00,56.0,56.0,29.95,East,97,0.0,0.0,99,0.00,,,0.09,,2013-04-09 08:32:00,
2013-04-09 04:42:00,56.0,56.0,29.95,East,97,0.0,0.0,99,0.00,,,0.09,,2013-04-09 08:42:00,
2013-04-09 04:52:00,55.0,55.0,29.95,East,97,0.0,0.0,99,0.00,,,0.09,,2013-04-09 08:52:00,
2013-04-09 05:02:00,55.0,55.0,29.96,East,97,0.0,0.0,99,0.00,,,0.09,,2013-04-09 09:02:00,
2013-04-09 05:12:00,55.0,55.0,29.95,East,97,0.0,0.0,99,0.00,,,0.09,,2013-04-09 09:12:00,
2013-04-09 05:22:00,55.0,55.0,29.95,East,97,0.0,0.0,99,0.00,,,0.09,,2013-04-09 09:22:00,
2013-04-09 05:33:00,55.0,55.0,29.94,East,97,0.0,0.0,99,0.00,,,0.09,,2013-04-09 09:33:00,
2013-04-09 05:43:00,55.0,55.0,29.94,East,97,0.0,0.0,99,0.00,,,0.09,,2013-04-09 09:43:00,
2013-04-09 05:53:00,55.0,55.0,29.94,East,97,0.0,0.0,99,0.00,,,0.08,,2013-04-09 09:53:00,
2013-04-09 06:03:00,55.0,55.0,29.95,East,97,0.0,0.0,99,0.00,,,0.08,,2013-04-09 10:03:00,
2013-04-09 06:12:00,55.0,55.0,29.95,East,97,0.0,0.0,99,0.00,,,0.08,,2013-04-09 10:12:00,
2013-04-09 06:23:00,55.0,55.0,29.95,East,97,0.0,0.0,99,0.00,,,0.08,,2013-04-09 10:23:00,
2013-04-09 06:32:00,55.0,55.0,29.95,East,97,0.0,0.0,99,0.00,,,0.08,,2013-04-09 10:32:00,
2013-04-09 06:42:00,55.0,55.0,29.95,East,97,0.0,0.0,99,0.00,,,0.08,,2013-04-09 10:42:00,
2013-04-09 06:53:00,55.0,55.0,29.95,ENE,71,0.0,0.0,99,0.00,,,0.08,,2013-04-09 10:53:00,
2013-04-09 07:02:00,55.0,55.0,29.95,East,99,7.0,8.0,99,0.00,,,0.08,,2013-04-09 11:02:00,
2013-04-09 07:12:00,55.0,55.0,29.95,East,99,7.0,8.0,99,0.00,,,0.08,,2013-04-09 11:12:00,
2013-04-09 07:22:00,55.0,55.0,29.95,East,96,0.0,0.0,99,0.00,,,0.08,,2013-04-09 11:22:00,
2013-04-09 07:32:00,55.0,55.0,29.94,East,96,0.0,0.0,99,0.00,,,0.08,,2013-04-09 11:32:00,
2013-04-09 07:42:00,55.0,55.0,29.94,East,96,0.0,0.0,99,0.00,,,0.08,,2013-04-09 11:42:00,
2013-04-09 07:52:00,55.0,55.0,29.95,East,95,0.0,0.0,99,0.00,,,0.08,,2013-04-09 11:52:00,
2013-04-09 08:02:00,55.0,55.0,29.95,East,95,0.0,0.0,99,0.00,,,0.08,,2013-04-09 12:02:00,
2013-04-09 08:12:00,55.0,55.0,29.95,East,95,0.0,0.0,99,0.00,,,0.08,,2013-04-09 12:12:00,
2013-04-09 08:22:00,56.0,56.0,29.96,East,95,0.0,0.0,99,0.00,,,0.08,,2013-04-09 12:22:00,
2013-04-09 08:32:00,56.0,56.0,29.96,East,95,0.0,0.0,99,0.00,,,0.08,,2013-04-09 12:32:00,
2013-04-09 08:42:00,56.0,56.0,29.96,East,95,0.0,0.0,99,0.00,,,0.08,,2013-04-09 12:42:00,
2013-04-09 08:53:00,56.0,56.0,29.96,East,95,0.0,0.0,99,0.00,,,0.08,,2013-04-09 12:53:00,
2013-04-09 09:02:00,56.0,56.0,29.96,East,95,0.0,0.0,99,0.00,,,0.08,,2013-04-09 13:02:00,
2013-04-09 09:12:00,56.0,56.0,29.96,East,95,0.0,0.0,99,0.00,,,0.08,,2013-04-09 13:12:00,
2013-04-09 09:22:00,57.0,57.0,29.95,East,95,0.0,0.0,99,0.00,,,0.08,,2013-04-09 13:22:00,
2013-04-09 09:32:00,58.0,58.0,29.94,SSE,151,5.0,7.0,99,0.00,,,0.08,,2013-04-09 13:32:00,
2013-04-09 09:42:00,58.0,58.0,29.94,SSE,151,5.0,7.0,99,0.00,,,0.08,,2013-04-09 13:42:00,
2013-04-09 09:53:00,60.0,60.0,29.95,South,180,8.0,10.0,99,0.00,,,0.08,,2013-04-09 13:53:00,
2013-04-09 10:03:00,61.0,60.0,29.94,South,185,8.0,10.0,96,0.00,,,0.08,,2013-04-09 14:03:00,
2013-04-09 10:12:00,61.0,60.0,29.94,South,185,8.0,10.0,96,0.00,,,0.08,,2013-04-09 14:12:00,
2013-04-09 10:22:00,63.0,60.0,29.93,South,182,7.0,13.0,91,0.00,,,0.08,,2013-04-09 14:22:00,
2013-04-09 10:32:00,64.0,60.0,29.93,South,187,12.0,14.0,88,0.00,,,0.06,,2013-04-09 14:32:00,
2013-04-09 10:42:00,64.0,60.0,29.93,South,187,12.0,14.0,88,0.00,,,0.06,,2013-04-09 14:42:00,
2013-04-09 10:52:00,66.0,61.0,29.92,SW,215,8.0,16.0,84,0.00,,,0.06,,2013-04-09 14:52:00,
2013-04-09 11:02:00,68.0,62.0,29.92,SSW,194,8.0,14.0,81,0.00,,,0.06,,2013-04-09 15:02:00,
2013-04-09 11:12:00,68.0,62.0,29.92,SSW,194,8.0,14.0,81,0.00,,,0.06,,2013-04-09 15:12:00,
2013-04-09 11:22:00,71.0,63.0,29.92,SSW,207,9.0,12.0,75,0.00,,,0.06,,2013-04-09 15:22:00,
2013-04-09 11:33:00,72.0,62.0,29.92,SW,215,14.0,17.0,71,0.00,,,0.06,,2013-04-09 15:33:00,
2013-04-09 11:43:00,72.0,62.0,29.92,SW,215,14.0,17.0,71,0.00,,,0.06,,2013-04-09 15:43:00,
2013-04-09 11:53:00,74.0,63.0,29.91,SW,218,15.0,21.0,68,0.00,,,0.06,,2013-04-09 15:53:00,
2013-04-09 12:03:00,74.0,62.0,29.91,SW,231,14.0,21.0,67,0.00,,,0.06,,2013-04-09 16:03:00,
2013-04-09 12:13:00,74.0,62.0,29.91,SW,231,14.0,21.0,67,0.00,,,0.06,,2013-04-09 16:13:00,
2013-04-09 12:23:00,76.0,63.0,29.90,WSW,242,13.0,17.0,65,0.00,,,0.06,,2013-04-09 16:23:00,
2013-04-09 12:33:00,76.0,62.0,29.90,SW,224,18.0,22.0,62,0.00,,,0.06,,2013-04-09 16:33:00,
2013-04-09 12:42:00,76.0,62.0,29.90,SW,224,18.0,22.0,62,0.00,,,0.06,,2013-04-09 16:42:00,
2013-04-09 12:53:00,77.0,63.0,29.89,WSW,241,9.0,10.0,62,0.00,,,0.06,,2013-04-09 16:53:00,
2013-04-09 13:02:00,77.0,63.0,29.88,SW,222,15.0,22.0,62,0.00,,,0.06,,2013-04-09 17:02:00,
2013-04-09 13:12:00,76.0,62.0,29.88,WSW,247,14.0,20.0,61,0.00,,,0.06,,2013-04-09 17:12:00,
2013-04-09 13:23:00,76.0,62.0,29.88,WSW,247,14.0,20.0,61,0.00,,,0.06,,2013-04-09 17:23:00,
2013-04-09 13:32:00,76.0,62.0,29.87,SW,233,14.0,21.0,61,0.00,,,0.06,,2013-04-09 17:32:00,
2013-04-09 13:42:00,76.0,62.0,29.87,SW,233,14.0,21.0,61,0.00,,,0.06,,2013-04-09 17:42:00,
2013-04-09 13:54:00,77.0,63.0,29.87,SSW,212,14.0,22.0,61,0.00,,,0.06,,2013-04-09 17:54:00,
2013-04-09 14:02:00,77.0,62.0,29.86,SW,217,16.0,23.0,60,0.00,,,0.06,,2013-04-09 18:02:00,
2013-04-09 14:12:00,77.0,62.0,29.86,SW,217,16.0,23.0,60,0.00,,,0.06,,2013-04-09 18:12:00,
2013-04-09 14:22:00,78.0,62.0,29.86,WSW,248,10.0,18.0,59,0.00,,,0.06,,2013-04-09 18:22:00,
2013-04-09 14:32:00,78.0,62.0,29.85,WSW,238,20.0,29.0,57,0.00,,,0.06,,2013-04-09 18:32:00,
2013-04-09 14:43:00,78.0,62.0,29.85,WSW,238,20.0,29.0,57,0.00,,,0.06,,2013-04-09 18:43:00,
2013-04-09 14:53:00,78.0,61.0,29.85,SW,226,17.0,23.0,56,0.00,,,0.06,,2013-04-09 18:53:00,
2013-04-09 15:02:00,78.0,61.0,29.85,SW,226,17.0,23.0,56,0.00,,,0.06,,2013-04-09 19:02:00,
2013-04-09 15:12:00,78.0,61.0,29.85,SW,226,17.0,23.0,56,0.00,,,0.06,,2013-04-09 19:12:00,
2013-04-09 15:22:00,78.0,61.0,29.85,SW,226,17.0,23.0,56,0.00,,,0.06,,2013-04-09 19:22:00,
2013-04-09 15:32:00,79.0,61.0,29.85,WSW,242,17.0,28.0,54,0.00,,,0.06,,2013-04-09 19:32:00,
2013-04-09 15:42:00,79.0,61.0,29.85,WSW,242,17.0,28.0,54,0.00,,,0.06,,2013-04-09 19:42:00,
2013-04-09 15:52:00,79.0,59.0,29.85,West,262,17.0,20.0,51,0.00,,,0.06,,2013-04-09 19:52:00,
2013-04-09 16:02:00,79.0,59.0,29.85,WSW,239,16.0,25.0,50,0.00,,,0.06,,2013-04-09 20:02:00,
2013-04-09 16:12:00,79.0,58.0,29.85,West,260,21.0,28.0,48,0.00,,,0.06,,2013-04-09 20:12:00,
2013-04-09 16:22:00,79.0,58.0,29.85,West,260,21.0,28.0,48,0.00,,,0.06,,2013-04-09 20:22:00,
2013-04-09 16:33:00,79.0,58.0,29.86,SW,230,20.0,26.0,49,0.00,,,0.06,,2013-04-09 20:33:00,
2013-04-09 16:42:00,79.0,58.0,29.86,SW,230,20.0,26.0,49,0.00,,,0.06,,2013-04-09 20:42:00,
2013-04-09 16:52:00,78.0,58.0,29.86,WSW,258,20.0,35.0,50,0.00,,,0.06,,2013-04-09 20:52:00,
2013-04-09 17:02:00,78.0,58.0,29.86,WSW,253,18.0,26.0,50,0.00,,,0.06,,2013-04-09 21:02:00,
2013-04-09 17:13:00,78.0,58.0,29.86,WSW,253,18.0,26.0,50,0.00,,,0.06,,2013-04-09 21:13:00,
2013-04-09 17:22:00,78.0,58.0,29.86,WSW,253,18.0,26.0,50,0.00,,,0.06,,2013-04-09 21:22:00,
2013-04-09 17:33:00,77.0,58.0,29.85,WSW,249,15.0,20.0,52,0.00,,,0.06,,2013-04-09 21:33:00,
2013-04-09 17:42:00,77.0,58.0,29.85,WSW,249,15.0,20.0,52,0.00,,,0.06,,2013-04-09 21:42:00,
2013-04-09 17:53:00,77.0,59.0,29.85,WSW,256,12.0,23.0,54,0.00,,,0.06,,2013-04-09 21:53:00,
2013-04-09 18:03:00,77.0,60.0,29.85,WSW,256,8.0,13.0,55,0.00,,,0.06,,2013-04-09 22:03:00,
2013-04-09 18:12:00,76.0,60.0,29.86,West,266,10.0,23.0,57,0.00,,,0.06,,2013-04-09 22:12:00,
2013-04-09 18:23:00,76.0,60.0,29.86,West,266,10.0,23.0,57,0.00,,,0.06,,2013-04-09 22:23:00,
2013-04-09 18:33:00,76.0,61.0,29.86,West,262,9.0,16.0,59,0.00,,,0.06,,2013-04-09 22:33:00,
2013-04-09 18:42:00,76.0,61.0,29.86,West,262,9.0,16.0,59,0.00,,,0.06,,2013-04-09 22:42:00,
2013-04-09 18:53:00,75.0,60.0,29.87,West,275,9.0,18.0,60,0.00,,,0.06,,2013-04-09 22:53:00,
2013-04-09 19:03:00,75.0,61.0,29.87,WSW,253,9.0,14.0,61,0.00,,,0.06,,2013-04-09 23:03:00,
2013-04-09 19:12:00,75.0,61.0,29.87,WSW,246,8.0,10.0,62,0.00,,,0.06,,2013-04-09 23:12:00,
2013-04-09 19:22:00,75.0,61.0,29.87,WSW,246,8.0,10.0,62,0.00,,,0.06,,2013-04-09 23:22:00,
2013-04-09 19:32:00,75.0,61.0,29.87,WSW,255,15.0,22.0,62,0.00,,,0.06,,2013-04-09 23:32:00,
2013-04-09 19:42:00,75.0,61.0,29.87,WSW,255,15.0,22.0,62,0.00,,,0.06,,2013-04-09 23:42:00,
2013-04-09 19:53:00,75.0,62.0,29.88,WSW,254,10.0,20.0,63,0.00,,,0.06,,2013-04-09 23:53:00,
2013-04-09 20:03:00,75.0,62.0,29.88,WSW,254,10.0,20.0,63,0.00,,,0.06,,2013-04-10 00:03:00,
2013-04-09 20:12:00,75.0,62.0,29.88,WSW,254,10.0,20.0,63,0.00,,,0.06,,2013-04-10 00:12:00,
2013-04-09 20:22:00,74.0,61.0,29.87,WSW,258,10.0,15.0,64,0.00,,,0.05,,2013-04-10 00:22:00,
2013-04-09 20:32:00,74.0,61.0,29.88,West,261,6.0,7.0,65,0.00,,,0.01,,2013-04-10 00:32:00,
2013-04-09 20:42:00,74.0,61.0,29.88,West,261,6.0,7.0,65,0.00,,,0.01,,2013-04-10 00:42:00,
2013-04-09 20:52:00,73.0,61.0,29.88,WNW,293,3.0,8.0,66,0.00,,,0.01,,2013-04-10 00:52:00,
2013-04-09 21:02:00,73.0,61.0,29.88,WNW,282,7.0,10.0,67,0.00,,,0.01,,2013-04-10 01:02:00,
2013-04-09 21:12:00,73.0,62.0,29.88,West,272,3.0,5.0,69,0.00,,,0.00,,2013-04-10 01:12:00,
2013-04-09 21:23:00,73.0,62.0,29.88,West,272,3.0,5.0,69,0.00,,,0.00,,2013-04-10 01:23:00,
2013-04-09 21:32:00,73.0,63.0,29.89,WNW,286,5.0,7.0,70,0.00,,,0.00,,2013-04-10 01:32:00,
2013-04-09 21:42:00,73.0,63.0,29.89,WNW,286,5.0,7.0,70,0.00,,,0.00,,2013-04-10 01:42:00,
2013-04-09 21:53:00,72.0,62.0,29.89,West,277,0.0,0.0,71,0.00,,,0.00,,2013-04-10 01:53:00,
2013-04-09 22:02:00,72.0,62.0,29.90,West,277,0.0,0.0,72,0.00,,,0.00,,2013-04-10 02:02:00,
2013-04-09 22:12:00,72.0,62.0,29.90,West,277,0.0,0.0,72,0.00,,,0.00,,2013-04-10 02:12:00,
2013-04-09 22:22:00,71.0,63.0,29.89,West,277,0.0,0.0,75,0.00,,,0.00,,2013-04-10 02:22:00,
2013-04-09 22:32:00,71.0,63.0,29.89,West,277,0.0,0.0,76,0.00,,,0.00,,2013-04-10 02:32:00,
2013-04-09 22:42:00,71.0,63.0,29.89,West,277,0.0,0.0,76,0.00,,,0.00,,2013-04-10 02:42:00,
2013-04-09 22:52:00,70.0,63.0,29.89,West,268,0.0,0.0,78,0.00,,,0.00,,2013-04-10 02:52:00,
2013-04-09 23:02:00,70.0,63.0,29.89,West,275,2.0,5.0,78,0.00,,,0.00,,2013-04-10 03:02:00,
2013-04-09 23:12:00,70.0,63.0,29.89,West,275,2.0,5.0,78,0.00,,,0.00,,2013-04-10 03:12:00,
2013-04-09 23:22:00,70.0,63.0,29.88,West,267,3.0,5.0,78,0.00,,,0.00,,2013-04-10 03:22:00,
2013-04-09 23:32:00,70.0,63.0,29.88,West,269,5.0,5.0,78,0.00,,,0.00,,2013-04-10 03:32:00,
2013-04-09 23:43:00,70.0,63.0,29.88,West,269,5.0,5.0,78,0.00,,,0.00,,2013-04-10 03:43:00,
2013-04-09 23:53:00,70.0,63.0,29.88,West,268,5.0,6.0,79,0.00,,,0.00,,2013-04-10 03:53:00,